                ,  0.937,  1.134,  1.331,  1.528,  1.725,  1.922,  2.119,  2.316,  2.513,  2.711,  2.908,  3.105,  3.302,  3.499,  3.696,  3.893,  4.090,  4.287,  4.484,  4.681,  4.878,  5.076,  5.273,  5.470,  5.667,  5.864,  6.061,  6.258,  6.455,  6.652,  6.849,  7.046,  7.243,  7.441,  7.638,  7.835,  8.032,  8.229,  8.426,  8.623,  8.820,  9.017,  9.214,  9.411,  9.608,  9.806
2000/03/28 00:00,  999.0,  999.0,  999.0,  999.0,  999.0,  999.0,  999.0,  999.0,  999.0,  999.0,  999.0,  999.0,  999.0,  999.0,  999.0,  999.0,  999.0,  999.0,  999.0,  999.0,  999.0,  999.0,  999.0,  999.0,  999.0,  999.0,  999.0,  999.0,  999.0,  999.0,  999.0,  999.0,  999.0,  999.0,  999.0,  999.0,  999.0,  999.0,  999.0,  999.0,  999.0,  999.0,  999.0,  999.0,  999.0,  999.0
2000/03/28 00:10,  999.0,  999.0,  999.0,  999.0,  999.0,  999.0,  999.0,  999.0,  999.0,  999.0,  999.0,  999.0,  999.0,  999.0,  999.0,  999.0,  999.0,  999.0,  999.0,  999.0,  999.0,  999.0,  999.0,  999.0,  999.0,  999.0,  999.0,  999.0,  999.0,  999.0,  999.0,  999.0,  999.0,  999.0,  999.0,  999.0,  999.0,  999.0,  999.0,  999.0,  999.0,  999.0,  999.0,  999.0,  999.0,  999.0
2000/03/28 00:20,  999.0,  999.0,  999.0,  999.0,  999.0,  999.0,  999.0,  999.0,  999.0,  999.0,  999.0,  999.0,  999.0,  999.0,  999.0,  999.0,  999.0,  999.0,  999.0,  999.0,  999.0,  999.0,  999.0,  999.0,  999.0,  999.0,  999.0,  999.0,  999.0,  999.0,  999.0,  999.0,  999.0,  999.0,  999.0,  999.0,  999.0,  999.0,  999.0,  999.0,  999.0,  999.0,  999.0,  999.0,  999.0,  999.0
2000/03/28 00:30,  999.0,  999.0,  999.0,  999.0,  999.0,  999.0,  999.0,  999.0,  999.0,  999.0,  999.0,  999.0,  999.0,  999.0,  999.0,  999.0,  999.0,  999.0,  999.0,  999.0,  999.0,  999.0,  999.0,  999.0,  999.0,  999.0,  999.0,  999.0,  999.0,  999.0,  999.0,  999.0,  999.0,  999.0,  999.0,  999.0,  999.0,  999.0,  999.0,  999.0,  999.0,  999.0,  999.0,  999.0,  999.0,  999.0
2000/03/28 00:40,  999.0,  999.0,  999.0,  999.0,  999.0,  999.0,  999.0,  999.0,  999.0,  999.0,  999.0,  999.0,  999.0,  999.0,  999.0,  999.0,  999.0,  999.0,  999.0,  999.0,  999.0,  999.0,  999.0,  999.0,  999.0,  999.0,  999.0,  999.0,  999.0,  999.0,  999.0,  999.0,  999.0,  999.0,  999.0,  999.0,  999.0,  999.0,  999.0,  999.0,  999.0,  999.0,  999.0,  999.0,  999.0,  999.0
2000/03/28 00:50,    2.2,    3.7,    6.6,    8.0,    6.2,    5.9,    5.7,    3.3,  999.0,  999.0,  999.0,    4.0,  999.0,  999.0,  999.0,  999.0,  999.0,  999.0,  999.0,  999.0,  999.0,  999.0,  999.0,   21.0,   20.3,   20.9,   22.1,   23.6,   24.6,  999.0,  999.0,  999.0,  999.0,  999.0,  999.0,  999.0,  999.0,  999.0,  999.0,  999.0,  999.0,  999.0,  999.0,  999.0,  999.0,  999.0
2000/03/28 01:00,    1.2,    2.1,    6.4,    7.3,    7.1,    6.1,    5.5,    4.0,    2.1,    0.9,    2.8,    4.5,    6.6,    9.2,  999.0,  999.0,  999.0,  999.0,  999.0,  999.0,  999.0,  999.0,   19.1,   20.5,   20.3,   20.4,   20.4,   22.1,   23.6,   24.4,   26.9,  999.0,  999.0,  999.0,  999.0,  999.0,  999.0,  999.0,  999.0,  999.0,  999.0,  999.0,  999.0,  999.0,  999.0,  999.0
2000/03/28 01:10,    1.4,    2.6,    5.1,    7.1,    7.8,  999.0,  999.0,  999.0,    3.0,  999.0,  999.0,    4.5,    7.6,    9.9,  999.0,  999.0,  999.0,  999.0,  999.0,  999.0,  999.0,  999.0,   19.3,   20.3,   21.0,   22.0,   22.1,   22.4,   24.0,   25.2,   28.0,   31.1,  999.0,  999.0,  999.0,  999.0,  999.0,  999.0,  999.0,  999.0,  999.0,  999.0,  999.0,  999.0,  999.0,  999.0
2000/03/28 01:20,   -0.3,    3.5,    6.2,    6.9,    7.8,    7.6,    6.6,  999.0,    3.1,    2.7,    2.7,    5.9,    8.7,   10.5,  999.0,  999.0,  999.0,  999.0,  999.0,  999.0,  999.0,  999.0,  999.0,   20.7,   21.9,   21.8,   22.0,   22.1,   23.8,   24.7,   28.1,   31.0,   32.9,   32.3,  999.0,  999.0,  999.0,  999.0,  999.0,  999.0,  999.0,  999.0,  999.0,  999.0,  999.0,  999.0
2000/03/28 01:30,    0.0,    2.8,    4.9,    6.1,    7.0,    6.0,    5.7,    4.9,    4.0,    2.7,    2.2,    6.0,    8.3,  999.0,  999.0,  999.0,  999.0,  999.0,  999.0,  999.0,  999.0,  999.0,  999.0,   21.0,   22.3,   22.1,   22.5,   23.3,   23.9,   24.7,   26.1,   30.1,   31.6,   31.9,   32.5,   34.1,  999.0,  999.0,  999.0,  999.0,  999.0,  999.0,  999.0,  999.0,  999.0,  999.0
2000/03/28 01:40,    0.2,    2.3,    5.7,    6.2,    7.3,    6.5,    6.6,    4.5,    4.1,    3.7,    2.7,    7.4,   10.1,  999.0,  999.0,  999.0,  999.0,  999.0,  999.0,  999.0,  999.0,  999.0,  999.0,   20.6,   21.7,   22.7,   22.6,   23.2,   24.5,   24.7,   26.9,   30.4,   31.4,   32.8,   33.1,  999.0,  999.0,  999.0,  999.0,  999.0,  999.0,  999.0,  999.0,  999.0,  999.0,  999.0
2000/03/28 01:50,    0.3,    2.9,  999.0,    7.4,    7.5,    6.6,    6.4,    5.4,  999.0,    3.0,    2.3,    5.5,    8.2,  999.0,  999.0,  999.0,  999.0,  999.0,  999.0,  999.0,  999.0,  999.0,  999.0,  999.0,   19.5,   21.4,   22.5,   24.2,   25.3,   25.7,   28.1,   29.8,   31.2,  999.0,  999.0,  999.0,  999.0,  999.0,  999.0,  999.0,  999.0,  999.0,  999.0,  999.0,  999.0,  999.0
2000/03/28 02:00,    1.1,    3.5,    4.7,    7.5,    7.4,  999.0,  999.0,  999.0,    4.4,    3.2,    2.1,    5.1,    7.8,  999.0,  999.0,  999.0,  999.0,  999.0,  999.0,  999.0,  999.0,  999.0,  999.0,   18.9,   20.2,   20.3,   21.1,   23.4,   24.7,   26.5,   28.1,   30.4,   31.9,   32.6,  999.0,  999.0,  999.0,  999.0,  999.0,  999.0,  999.0,  999.0,  999.0,  999.0,  999.0,  999.0
2000/03/28 02:10,    1.4,    4.6,    6.2,  999.0,    8.7,    8.0,    6.0,    4.4,    4.0,    4.0,    3.9,  999.0,  999.0,  999.0,  999.0,  999.0,  999.0,  999.0,  999.0,  999.0,  999.0,  999.0,   17.5,   19.1,   20.5,   20.4,   20.4,   21.9,   23.8,   26.6,   28.9,   30.2,   31.3,  999.0,  999.0,  999.0,  999.0,  999.0,  999.0,  999.0,  999.0,  999.0,  999.0,  999.0,  999.0,  999.0
2000/03/28 02:20,    2.0,    3.8,    6.4,    8.9,    8.6,    8.1,    7.3,  999.0,    4.0,    3.7,    3.4,    6.1,    9.0,  999.0,  999.0,  999.0,  999.0,  999.0,  999.0,  999.0,  999.0,   16.8,   19.1,   20.3,   20.8,   20.5,   21.2,   23.6,   24.9,   27.7,   29.4,  999.0,  999.0,  999.0,  999.0,  999.0,  999.0,  999.0,  999.0,  999.0,  999.0,  999.0,  999.0,  999.0,  999.0,  999.0
2000/03/28 02:30,    1.5,    5.0,    8.3,    8.2,    7.8,    7.2,    7.4,    6.0,  999.0,    3.4,    4.5,    6.3,    7.4,  999.0,  999.0,  999.0,  999.0,  999.0,  999.0,  999.0,  999.0,   17.5,   19.4,   20.4,   20.8,   21.8,   23.2,   24.9,   25.4,   26.6,   28.7,   29.9,   30.5,   30.8,   30.8,   31.5,  999.0,  999.0,  999.0,  999.0,  999.0,  999.0,  999.0,  999.0,  999.0,  999.0
2000/03/28 02:40,    2.3,    4.1,    7.4,    9.3,    7.7,    7.2,    6.4,    5.8,  999.0,    3.7,    4.4,    7.3,  999.0,    8.1,  999.0,  999.0,  999.0,  999.0,  999.0,  999.0,   16.4,   18.7,   20.6,   21.2,   21.5,   22.0,   23.6,   25.7,   26.7,   28.9,   31.2,   32.4,   31.9,  999.0,  999.0,  999.0,  999.0,  999.0,  999.0,  999.0,  999.0,  999.0,  999.0,  999.0,  999.0,  999.0
2000/03/28 02:50,    2.4,    6.4,    7.2,    8.0,    9.4,    6.9,    6.8,    7.6,    7.2,  999.0,    6.2,    7.8,    6.5,    6.5,  999.0,  999.0,  999.0,  999.0,  999.0,  999.0,  999.0,  999.0,   18.7,   20.2,   21.7,   22.4,   23.7,   26.5,   27.4,   30.6,   31.7,  999.0,  999.0,  999.0,  999.0,  999.0,  999.0,  999.0,  999.0,  999.0,  999.0,  999.0,  999.0,  999.0,  999.0,  999.0
2000/03/28 03:00,  999.0,  999.0,    7.0,    6.6,    5.6,    6.1,    6.6,    6.9,    6.6,    7.2,    6.7,    6.7,    7.2,    6.0,  999.0,  999.0,  999.0,  999.0,  999.0,  999.0,  999.0,   19.2,   20.9,   21.4,   22.5,   23.5,   24.5,   25.8,   26.7,   27.4,   29.9,   31.0,   31.4,   31.9,  999.0,  999.0,  999.0,  999.0,  999.0,  999.0,  999.0,  999.0,  999.0,  999.0,  999.0,  999.0
2000/03/28 03:10,    1.7,    5.8,  999.0,    6.6,    5.6,    6.7,    7.6,    6.8,  999.0,    6.6,    6.8,    6.3,  999.0,    6.0,  999.0,  999.0,  999.0,  999.0,  999.0,  999.0,  999.0,   19.5,   20.5,   21.4,   23.9,   24.7,   24.9,   26.0,   26.9,   28.8,   30.6,   30.7,  999.0,  999.0,  999.0,  999.0,  999.0,  999.0,  999.0,  999.0,  999.0,  999.0,  999.0,  999.0,  999.0,  999.0
2000/03/28 03:20,    0.9,    5.4,    6.1,  999.0,  999.0,    5.1,    6.6,    7.7,    8.2,    8.6,    7.5,  999.0,    7.2,  999.0,  999.0,  999.0,  999.0,  999.0,  999.0,  999.0,  999.0,   19.6,   20.3,   21.1,   24.0,   25.1,   25.4,   26.3,   27.0,  999.0,   30.3,  999.0,  999.0,  999.0,  999.0,  999.0,  999.0,  999.0,  999.0,  999.0,  999.0,  999.0,  999.0,  999.0,  999.0,  999.0
2000/03/28 03:30,    1.0,    4.3,    5.6,    5.2,  999.0,  999.0,    5.4,    6.7,    7.9,    8.5,    7.9,    8.5,    7.5,    6.6,  999.0,  999.0,  999.0,   11.6,  999.0,   17.9,   20.1,   20.5,   21.7,   22.7,  999.0,  999.0,  999.0,  999.0,  999.0,  999.0,  999.0,  999.0,  999.0,  999.0,  999.0,  999.0,  999.0,  999.0,  999.0,  999.0,  999.0,  999.0,  999.0,  999.0,  999.0,  999.0
2000/03/28 03:40,    1.8,    3.3,  999.0,    6.4,  999.0,    4.6,    6.2,    6.7,    7.3,  999.0,    7.7,  999.0,    9.4,  999.0,   10.9,  999.0,  999.0,  999.0,   13.1,  999.0,   18.5,   20.2,   21.7,   23.8,   24.5,   23.8,   24.7,   26.5,  999.0,  999.0,  999.0,  999.0,  999.0,  999.0,  999.0,  999.0,  999.0,  999.0,  999.0,  999.0,  999.0,  999.0,  999.0,  999.0,  999.0,  999.0
2000/03/28 03:50,    0.2,    3.8,    4.2,    4.6,    4.9,    3.7,    5.6,    7.3,  999.0,    8.4,    8.9,   10.0,   10.1,    9.7,   10.6,  999.0,  999.0,  999.0,   13.6,   17.2,   18.8,   20.7,   22.6,   24.0,   24.4,   24.0,   23.9,   25.5,   27.5,  999.0,  999.0,  999.0,  999.0,  999.0,  999.0,  999.0,  999.0,  999.0,  999.0,  999.0,  999.0,  999.0,  999.0,  999.0,  999.0,  999.0
2000/03/28 04:00,    0.1,  999.0,    2.9,    4.2,    3.9,    6.0,    6.6,    7.8,    7.5,  999.0,  999.0,  999.0,   11.9,  999.0,  999.0,  999.0,  999.0,  999.0,   15.7,   17.8,   19.2,   20.4,   22.5,   24.7,   24.3,   24.0,   24.3,   25.4,  999.0,  999.0,  999.0,  999.0,  999.0,  999.0,  999.0,  999.0,  999.0,  999.0,  999.0,  999.0,  999.0,  999.0,  999.0,  999.0,  999.0,  999.0
2000/03/28 04:10,   -0.1,  999.0,    3.2,    3.9,    4.0,  999.0,    6.1,    6.0,    6.1,    6.9,    9.4,   11.3,   10.7,   11.7,  999.0,  999.0,  999.0,  999.0,   13.0,   17.4,   19.5,   20.2,   22.4,   23.6,   23.6,  999.0,  999.0,  999.0,  999.0,  999.0,  999.0,  999.0,  999.0,  999.0,  999.0,  999.0,  999.0,  999.0,  999.0,  999.0,  999.0,  999.0,  999.0,  999.0,  999.0,  999.0
2000/03/28 04:20,   -0.1,  999.0,  999.0,  999.0,  999.0,  999.0,    6.7,    5.7,    5.1,    6.8,    8.9,    9.2,    9.3,    9.6,   10.4,  999.0,   10.6,   11.5,   14.4,   18.4,   21.0,  999.0,  999.0,  999.0,  999.0,  999.0,   27.1,  999.0,  999.0,  999.0,  999.0,  999.0,  999.0,  999.0,  999.0,  999.0,  999.0,  999.0,  999.0,  999.0,  999.0,  999.0,  999.0,  999.0,  999.0,  999.0
2000/03/28 04:30,  999.0,  999.0,  999.0,  999.0,  999.0,    6.5,    6.9,    6.3,    6.2,  999.0,  999.0,   10.3,    9.1,  999.0,    9.4,  999.0,   11.2,   13.3,  999.0,   17.4,   19.1,   20.9,  999.0,  999.0,  999.0,  999.0,  999.0,  999.0,  999.0,  999.0,  999.0,  999.0,  999.0,  999.0,  999.0,  999.0,  999.0,  999.0,  999.0,  999.0,  999.0,  999.0,  999.0,  999.0,  999.0,  999.0
2000/03/28 04:40,    0.9,   -1.7,    0.5,  999.0,    5.6,    7.3,    7.1,    6.8,    7.2,    7.9,    9.0,    9.6,    8.2,    9.2,    9.2,   10.4,   13.1,   15.5,  999.0,  999.0,   17.3,   19.0,  999.0,  999.0,  999.0,  999.0,  999.0,  999.0,  999.0,  999.0,  999.0,  999.0,   31.6,   32.0,  999.0,  999.0,  999.0,  999.0,  999.0,  999.0,  999.0,  999.0,  999.0,  999.0,  999.0,  999.0
2000/03/28 04:50,  999.0,  999.0,  999.0,  999.0,    5.4,    7.7,    7.6,    7.1,    7.4,    8.7,    9.3,    8.0,    9.4,    9.9,   10.4,   11.6,   14.6,   16.2,   16.6,   14.5,   16.5,  999.0,  999.0,  999.0,  999.0,  999.0,  999.0,  999.0,  999.0,  999.0,  999.0,  999.0,   31.7,   32.0,   32.1,   32.5,  999.0,  999.0,  999.0,  999.0,  999.0,  999.0,  999.0,  999.0,  999.0,  999.0
2000/03/28 05:00,  999.0,  999.0,  999.0,    2.3,    5.2,    7.1,    5.8,    5.9,    6.7,    8.7,    6.0,    7.1,   11.3,   12.7,   10.2,   11.7,   14.5,   15.7,  999.0,   14.5,   18.0,   20.9,  999.0,  999.0,  999.0,  999.0,  999.0,  999.0,  999.0,  999.0,  999.0,   32.2,   31.5,   31.5,   32.6,  999.0,  999.0,  999.0,  999.0,  999.0,  999.0,  999.0,  999.0,  999.0,  999.0,  999.0
2000/03/28 05:10,  999.0,   -1.0,   -0.6,    1.2,    4.7,    5.3,    4.0,    4.0,    4.6,    4.5,    6.5,    9.4,   12.0,   13.4,   12.6,   11.7,   14.6,   16.2,  999.0,  999.0,  999.0,  999.0,  999.0,  999.0,  999.0,  999.0,  999.0,  999.0,   28.4,   29.3,   30.2,   30.8,   31.2,   31.5,   32.3,  999.0,  999.0,  999.0,  999.0,  999.0,  999.0,  999.0,  999.0,  999.0,  999.0,  999.0
2000/03/28 05:20,  999.0,   -1.8,    0.5,    3.0,  999.0,    5.0,    4.3,    4.0,    2.7,    4.0,    6.9,    8.7,   11.7,   12.5,   12.0,   11.8,   14.6,   16.2,   14.9,  999.0,   20.2,   21.4,  999.0,   22.3,   23.5,   26.1,   27.4,   27.0,   28.1,   28.9,   30.0,   30.5,   31.7,   33.4,   33.6,  999.0,  999.0,  999.0,  999.0,  999.0,  999.0,  999.0,  999.0,  999.0,  999.0,  999.0
2000/03/28 05:30,   -0.5,  999.0,   -0.6,    1.6,    4.5,    6.4,    4.7,    3.7,    3.8,    5.3,    7.6,    9.4,   12.1,   11.4,   12.5,   13.4,   14.7,   15.8,   16.3,   19.2,   21.1,   22.5,   22.2,   22.4,   25.3,   27.2,   27.3,   27.7,   28.1,   29.0,   30.4,   31.6,   33.0,   33.1,   32.8,   33.3,  999.0,  999.0,  999.0,  999.0,  999.0,  999.0,  999.0,  999.0,  999.0,  999.0
2000/03/28 05:40,   -1.0,  999.0,   -0.9,    1.0,    2.3,  999.0,    4.0,  999.0,    4.6,    7.0,    9.3,   10.1,   11.9,   13.1,   13.9,   14.3,   15.3,   16.2,   17.8,   19.5,   20.1,   21.1,   22.2,   24.9,   27.5,   28.1,   28.4,   28.5,   29.8,   31.2,   31.2,   32.0,   31.9,   31.6,  999.0,  999.0,  999.0,  999.0,  999.0,  999.0,  999.0,  999.0,  999.0,  999.0,  999.0,  999.0
2000/03/28 05:50,   -0.7,   -1.6,   -2.4,    1.6,    4.2,  999.0,  999.0,  999.0,    3.8,    5.8,    7.9,    9.5,   10.4,   12.4,   13.6,   14.9,   15.7,   16.0,   19.0,   20.6,   18.9,   21.4,   23.5,   26.6,   28.4,   27.7,   28.9,   29.2,   30.4,   30.5,   30.7,   30.1,   30.8,   33.4,  999.0,  999.0,  999.0,  999.0,  999.0,  999.0,  999.0,  999.0,  999.0,  999.0,  999.0,  999.0
2000/03/28 06:00,  999.0,  999.0,  999.0,    2.4,    4.0,    4.5,    3.4,    2.4,    3.9,    5.9,    7.4,    8.1,    9.3,   11.3,   12.9,   14.7,   16.9,   17.4,  999.0,   18.4,   20.3,  999.0,   24.4,   25.0,   25.7,   26.2,   26.6,   28.9,   31.3,   31.2,  999.0,  999.0,  999.0,  999.0,  999.0,  999.0,  999.0,  999.0,  999.0,  999.0,  999.0,  999.0,  999.0,  999.0,  999.0,  999.0
2000/03/28 06:10,   -0.1,  999.0,  999.0,    2.2,    3.1,  999.0,    3.7,    3.1,    3.5,    6.7,    8.2,    7.3,  999.0,   10.9,   13.1,   15.3,   17.6,   17.4,   18.4,   19.0,   20.0,  999.0,  999.0,   25.0,  999.0,  999.0,   25.4,  999.0,  999.0,  999.0,  999.0,  999.0,  999.0,  999.0,  999.0,  999.0,  999.0,  999.0,  999.0,  999.0,  999.0,  999.0,  999.0,  999.0,  999.0,  999.0
2000/03/28 06:20,  999.0,  999.0,  999.0,  999.0,    3.7,  999.0,    3.2,    2.4,    3.3,    5.9,    7.7,    5.5,    7.2,    9.4,   11.9,   13.8,   16.6,   16.4,   17.6,  999.0,  999.0,  999.0,  999.0,  999.0,  999.0,  999.0,  999.0,   25.7,   27.4,   28.5,  999.0,  999.0,  999.0,  999.0,  999.0,  999.0,  999.0,  999.0,  999.0,  999.0,  999.0,  999.0,  999.0,  999.0,  999.0,  999.0
2000/03/28 06:30,  999.0,  999.0,  999.0,  999.0,  999.0,  999.0,    2.8,    3.0,    3.7,    5.1,    4.6,    4.2,    7.7,   10.2,   11.9,   14.5,   16.1,   17.4,   18.7,   21.8,  999.0,  999.0,  999.0,   23.7,   24.7,   24.0,   25.0,   26.4,   27.8,   29.2,   29.0,  999.0,  999.0,  999.0,  999.0,  999.0,  999.0,  999.0,  999.0,  999.0,  999.0,  999.0,  999.0,  999.0,  999.0,  999.0
2000/03/28 06:40,  999.0,  999.0,   -0.4,  999.0,  999.0,  999.0,  999.0,  999.0,    3.6,  999.0,    2.9,    4.6,    7.9,    9.7,   12.8,   15.4,   16.2,   17.8,   20.5,  999.0,  999.0,  999.0,  999.0,   24.0,   25.1,   24.9,   24.5,   25.4,   25.7,   26.9,  999.0,   33.8,   36.6,   39.6,  999.0,  999.0,  999.0,  999.0,  999.0,  999.0,  999.0,  999.0,  999.0,  999.0,  999.0,  999.0
2000/03/28 06:50,  999.0,  999.0,  999.0,  999.0,    5.5,    6.4,    5.0,    3.2,    3.5,  999.0,  999.0,  999.0,  999.0,    8.5,   12.4,   15.0,   16.1,   18.2,  999.0,  999.0,  999.0,  999.0,  999.0,   23.7,   23.4,   22.8,   22.6,   23.9,   25.3,   27.1,  999.0,  999.0,  999.0,  999.0,  999.0,  999.0,  999.0,  999.0,  999.0,  999.0,  999.0,  999.0,  999.0,  999.0,  999.0,  999.0
2000/03/28 07:00,   -3.9,   -2.3,  999.0,  999.0,  999.0,    6.2,  999.0,    5.3,    4.8,  999.0,    5.2,    5.9,    6.9,    8.7,   12.3,   14.6,   15.8,   19.6,   22.8,  999.0,  999.0,  999.0,  999.0,   24.0,  999.0,   22.0,  999.0,  999.0,  999.0,  999.0,  999.0,  999.0,  999.0,  999.0,  999.0,  999.0,  999.0,  999.0,  999.0,  999.0,  999.0,  999.0,  999.0,  999.0,  999.0,  999.0
2000/03/28 07:10,  999.0,  999.0,    0.8,  999.0,    3.5,    5.1,    5.9,    5.7,    5.0,    4.7,  999.0,    6.0,    7.0,    8.9,   10.9,   13.0,   15.3,   16.5,   20.6,  999.0,  999.0,  999.0,  999.0,  999.0,  999.0,  999.0,  999.0,  999.0,  999.0,  999.0,  999.0,  999.0,  999.0,  999.0,  999.0,  999.0,  999.0,  999.0,  999.0,  999.0,  999.0,  999.0,  999.0,  999.0,  999.0,  999.0
2000/03/28 07:20,  999.0,   -0.5,    0.6,    2.3,    3.8,    4.6,    6.1,    6.1,    5.5,    4.8,    4.7,    4.7,    5.8,  999.0,    8.3,   12.0,   14.8,   16.6,   18.7,   20.7,  999.0,  999.0,   21.7,  999.0,  999.0,  999.0,   22.5,   24.5,  999.0,  999.0,  999.0,  999.0,  999.0,  999.0,  999.0,  999.0,  999.0,  999.0,  999.0,  999.0,  999.0,  999.0,  999.0,  999.0,  999.0,  999.0
2000/03/28 07:30,  999.0,  999.0,    0.0,    1.7,  999.0,    4.7,    4.9,    5.3,    4.6,    3.1,    3.2,    4.0,    4.9,    6.3,    8.1,   11.1,   13.7,   16.0,   19.9,  999.0,  999.0,  999.0,   21.7,  999.0,  999.0,  999.0,   24.0,   25.9,  999.0,  999.0,   30.6,   33.7,   34.9,   36.9,   39.1,  999.0,  999.0,  999.0,  999.0,  999.0,  999.0,  999.0,  999.0,  999.0,  999.0,  999.0
2000/03/28 07:40,   -3.9,  999.0,  999.0,    1.3,    3.5,    2.9,    5.2,    4.6,    4.3,    3.3,    2.9,    3.0,    4.0,    6.3,    7.7,    9.9,   12.8,   14.9,   19.1,  999.0,  999.0,  999.0,   20.9,  999.0,   21.3,   22.8,  999.0,  999.0,  999.0,   30.0,   30.9,   32.7,   34.7,   36.2,   39.7,   41.8,   44.8,  999.0,  999.0,  999.0,  999.0,  999.0,  999.0,  999.0,  999.0,  999.0
2000/03/28 07:50,  999.0,  999.0,  999.0,    1.2,    2.1,  999.0,    5.9,  999.0,    4.9,    3.3,    2.2,    3.5,    5.1,    7.1,    8.6,   10.2,   12.6,   16.2,   17.5,  999.0,  999.0,  999.0,  999.0,  999.0,   23.1,   24.5,   25.2,   26.5,   28.0,   29.3,   31.0,   33.2,   35.6,   37.8,   39.2,   41.7,  999.0,  999.0,  999.0,  999.0,  999.0,  999.0,  999.0,  999.0,  999.0,  999.0
2000/03/28 08:00,  999.0,  999.0,  999.0,    0.3,    1.8,    2.8,    4.5,  999.0,    5.5,  999.0,  999.0,    2.5,    4.9,  999.0,  999.0,  999.0,   13.3,  999.0,  999.0,  999.0,  999.0,  999.0,   21.1,   23.3,   22.9,   23.5,   23.5,   26.6,   30.1,   29.3,   32.9,   36.0,   37.8,   38.9,   40.1,   42.2,  999.0,  999.0,  999.0,  999.0,  999.0,  999.0,  999.0,  999.0,  999.0,  999.0
2000/03/28 08:10,  999.0,   -2.9,  999.0,    0.7,    1.7,    3.3,    5.4,    6.4,    5.5,    4.6,    3.7,    2.9,  999.0,    6.9,    9.5,  999.0,   12.6,   14.8,   17.1,  999.0,  999.0,   20.3,   20.8,   21.1,   23.4,   24.7,   27.4,   30.1,   32.1,   32.4,   34.0,   35.2,   35.3,   38.2,   40.6,   42.0,  999.0,  999.0,  999.0,  999.0,  999.0,  999.0,  999.0,  999.0,  999.0,  999.0
2000/03/28 08:20,  999.0,   -2.5,  999.0,   -0.0,    1.3,  999.0,    6.1,    6.5,    5.7,    4.5,    3.6,  999.0,  999.0,  999.0,    9.0,   10.8,  999.0,   14.7,  999.0,  999.0,  999.0,   21.6,   23.1,   25.0,   28.1,   28.8,   30.2,   31.0,   31.0,   32.0,   34.3,   34.4,   36.5,   38.4,   40.6,   41.3,  999.0,  999.0,  999.0,  999.0,  999.0,  999.0,  999.0,  999.0,  999.0,  999.0
2000/03/28 08:30,   -3.9,  999.0,  999.0,   -0.8,  999.0,    2.5,    4.8,    5.9,    6.1,  999.0,  999.0,  999.0,  999.0,  999.0,    7.6,   11.0,   12.6,  999.0,  999.0,  999.0,   20.4,   21.7,   23.8,   26.1,   28.4,  999.0,  999.0,  999.0,  999.0,  999.0,   34.1,   36.4,   38.7,   39.8,   40.3,  999.0,  999.0,  999.0,  999.0,  999.0,  999.0,  999.0,  999.0,  999.0,  999.0,  999.0
2000/03/28 08:40,  999.0,   -2.9,  999.0,  999.0,    0.6,  999.0,    5.4,    6.1,    6.4,    5.5,    3.1,    1.4,  999.0,    5.4,    8.0,   11.5,  999.0,   14.1,  999.0,  999.0,  999.0,   24.3,   26.0,   27.7,  999.0,  999.0,  999.0,  999.0,   29.3,   30.8,   33.6,   37.8,   40.3,  999.0,  999.0,  999.0,  999.0,  999.0,  999.0,  999.0,  999.0,  999.0,  999.0,  999.0,  999.0,  999.0
2000/03/28 08:50,   -4.0,   -2.8,  999.0,   -0.8,  999.0,    3.8,    5.6,    7.0,    7.6,    6.8,    4.7,    1.8,  999.0,    3.0,    7.8,  999.0,  999.0,   12.9,   14.7,   18.6,   22.4,   24.4,   26.1,   27.4,  999.0,  999.0,  999.0,  999.0,  999.0,   32.2,   36.0,   39.0,   39.7,   37.7,   37.1,  999.0,  999.0,  999.0,  999.0,  999.0,  999.0,  999.0,  999.0,  999.0,  999.0,  999.0
2000/03/28 09:00,  999.0,  999.0,  999.0,  999.0,    1.9,    3.5,    4.1,    4.9,    5.0,  999.0,  999.0,  999.0,  999.0,    4.0,    5.3,  999.0,  999.0,  999.0,   15.3,   19.2,   21.5,   23.7,   26.0,   27.3,  999.0,  999.0,  999.0,   27.8,   28.8,   31.7,   35.6,   37.9,   36.6,   36.4,  999.0,  999.0,  999.0,  999.0,  999.0,  999.0,  999.0,  999.0,  999.0,  999.0,  999.0,  999.0
2000/03/28 09:10,   -4.1,   -3.4,  999.0,  999.0,    1.4,    2.6,    3.3,    4.6,    5.0,  999.0,  999.0,    6.6,    6.4,    4.3,    5.8,  999.0,  999.0,  999.0,   16.2,   19.3,   21.3,   24.8,   26.2,  999.0,  999.0,  999.0,  999.0,   28.1,   27.8,   30.0,   34.4,   36.0,   35.9,   34.1,   33.3,  999.0,  999.0,  999.0,  999.0,  999.0,  999.0,  999.0,  999.0,  999.0,  999.0,  999.0
2000/03/28 09:20,   -4.1,   -3.7,   -1.3,   -0.4,    1.2,    1.6,    2.7,    2.5,    2.4,    3.7,    3.4,    4.7,    3.4,    3.9,  999.0,  999.0,  999.0,  999.0,   15.6,   18.9,   20.5,   23.3,  999.0,  999.0,  999.0,  999.0,  999.0,  999.0,   27.7,   30.6,   33.8,   34.5,   33.4,   32.0,  999.0,  999.0,  999.0,  999.0,  999.0,  999.0,  999.0,  999.0,  999.0,  999.0,  999.0,  999.0
2000/03/28 09:30,  999.0,   -3.7,   -2.1,   -1.3,    1.0,    1.7,    2.8,    4.0,    3.8,    3.2,  999.0,    4.3,  999.0,  999.0,  999.0,  999.0,  999.0,   13.2,   16.0,   17.8,   19.8,   21.6,  999.0,  999.0,  999.0,   25.6,   26.1,   25.4,   27.7,   30.3,   32.9,   33.4,   32.0,   30.8,   33.1,   38.3,  999.0,  999.0,  999.0,  999.0,  999.0,  999.0,  999.0,  999.0,  999.0,  999.0
2000/03/28 09:40,  999.0,   -4.8,  999.0,  999.0,    1.2,    1.1,   -0.4,  999.0,  999.0,    3.0,    3.4,    4.1,  999.0,  999.0,    6.6,    9.8,   11.5,   13.8,   16.1,   18.6,   21.4,  999.0,  999.0,  999.0,   25.1,   25.2,   25.4,   23.9,   25.8,   28.4,   29.9,   30.8,   31.1,   29.9,  999.0,   41.1,   44.2,  999.0,  999.0,  999.0,  999.0,  999.0,  999.0,  999.0,  999.0,  999.0
2000/03/28 09:50,  999.0,   -4.3,   -1.5,   -0.0,    0.9,    0.8,    0.1,   -2.1,  999.0,    2.0,    4.7,    4.8,    3.0,    3.2,    6.3,    8.8,   11.4,   14.1,   16.3,   18.2,   20.9,  999.0,  999.0,  999.0,  999.0,  999.0,   24.3,   25.3,   28.8,   30.0,   29.3,   30.6,   30.8,   34.8,   38.7,  999.0,  999.0,  999.0,  999.0,  999.0,  999.0,  999.0,  999.0,  999.0,  999.0,  999.0
2000/03/28 10:00,  999.0,   -3.2,   -1.2,    0.4,    1.3,    2.3,    2.3,    1.1,    1.6,  999.0,    3.6,    5.1,    4.5,    4.1,    6.1,    7.1,   11.1,   13.4,   15.8,   17.2,   20.5,  999.0,  999.0,   24.0,   25.2,   24.9,   24.9,   26.8,   27.6,   26.5,   27.4,   28.7,   31.9,  999.0,  999.0,  999.0,  999.0,  999.0,  999.0,  999.0,  999.0,  999.0,  999.0,  999.0,  999.0,  999.0
2000/03/28 10:10,  999.0,   -3.3,   -0.8,   -0.2,    0.7,    1.5,    2.5,    3.6,    4.3,    3.4,    3.5,    4.3,    4.1,    4.4,    4.9,    8.0,   11.9,   13.8,   16.0,   18.2,  999.0,   22.7,   22.6,   23.3,   22.8,   23.0,   23.9,   26.0,  999.0,  999.0,  999.0,  999.0,  999.0,   35.7,   38.0,   41.4,  999.0,   47.2,  999.0,  999.0,  999.0,  999.0,  999.0,  999.0,  999.0,  999.0
2000/03/28 10:20,  999.0,   -4.2,   -3.0,  999.0,    0.1,    1.0,    3.4,  999.0,    5.8,    5.2,    3.8,    3.4,    2.8,    3.1,    4.1,    9.4,   12.9,   14.5,   16.9,   19.6,  999.0,  999.0,  999.0,  999.0,  999.0,  999.0,  999.0,   21.4,   23.7,   25.4,   28.2,   30.5,   32.9,   35.4,   38.4,   41.4,   43.2,   45.2,  999.0,  999.0,  999.0,  999.0,  999.0,  999.0,  999.0,  999.0
2000/03/28 10:30,  999.0,   -4.4,   -2.8,   -1.7,   -0.2,    2.0,    2.3,    3.7,    5.6,    6.1,    6.1,    4.0,  999.0,    0.9,    2.4,    7.4,   10.8,   12.5,   15.8,   19.3,  999.0,   20.6,   21.6,   21.5,   20.9,   21.9,   21.1,   21.1,   22.3,   25.5,   26.9,   26.8,   30.1,  999.0,  999.0,  999.0,  999.0,  999.0,  999.0,  999.0,  999.0,  999.0,  999.0,  999.0,  999.0,  999.0
2000/03/28 10:40,  999.0,   -4.0,  999.0,   -1.5,    0.4,  999.0,  999.0,  999.0,    6.4,    6.7,    6.4,    4.5,    3.5,    1.4,    2.2,    6.4,   10.6,   11.9,   14.1,   16.8,   17.7,   18.2,   19.6,   19.9,   20.1,   20.1,   20.6,   22.4,   23.0,   23.4,   24.4,   26.6,  999.0,  999.0,  999.0,   41.3,   42.9,  999.0,  999.0,  999.0,  999.0,  999.0,  999.0,  999.0,  999.0,  999.0
2000/03/28 10:50,  999.0,   -4.2,   -3.2,  999.0,    2.0,  999.0,  999.0,    3.7,    3.5,    4.3,    4.4,    4.1,    2.8,    2.6,    1.9,    7.3,    8.7,   10.6,   13.2,   16.1,   17.9,   18.2,   18.2,   18.9,   19.7,   21.0,   22.5,   22.0,   21.3,   21.5,   22.9,   24.2,   28.9,   33.3,   37.0,   39.7,   42.2,  999.0,  999.0,  999.0,  999.0,  999.0,  999.0,  999.0,  999.0,  999.0
2000/03/28 11:00,  999.0,   -3.1,   -1.1,   -0.2,    2.4,    3.9,    3.5,    2.3,    2.4,    2.0,  999.0,  999.0,  999.0,    1.4,    3.7,    7.5,   10.0,   11.6,   14.0,  999.0,   16.7,   17.0,   18.7,   21.3,   22.0,   20.8,   20.4,   19.7,   20.2,   21.2,   21.2,   24.0,   28.1,   32.4,   35.6,   37.8,   39.1,  999.0,  999.0,  999.0,  999.0,  999.0,  999.0,  999.0,  999.0,  999.0
2000/03/28 11:10,  999.0,  999.0,   -0.1,    1.2,    3.9,    4.2,    2.1,    2.3,    3.6,    3.8,    2.4,  999.0,  999.0,    3.2,    5.5,    7.5,   10.2,   12.3,   13.8,  999.0,  999.0,   18.6,   19.9,   19.1,   17.9,   18.4,   18.8,   19.9,   20.0,   18.8,   20.5,   23.6,   27.6,   32.9,   37.2,   39.8,  999.0,  999.0,   43.1,  999.0,  999.0,  999.0,  999.0,  999.0,  999.0,  999.0
2000/03/28 11:20,   -4.6,   -2.6,   -0.3,    1.6,    2.2,    1.5,    1.2,    1.8,    3.0,    4.4,  999.0,  999.0,  999.0,    4.3,  999.0,  999.0,  999.0,  999.0,  999.0,  999.0,   17.8,   18.1,   17.5,   17.4,   18.0,   18.0,   18.9,   19.7,   18.5,   17.8,   22.4,   26.6,   30.7,   36.5,  999.0,  999.0,  999.0,  999.0,  999.0,  999.0,  999.0,  999.0,  999.0,  999.0,  999.0,  999.0
2000/03/28 11:30,   -4.1,   -1.9,   -0.4,    1.3,    2.1,    1.9,    2.1,    2.9,    3.9,    4.6,    3.4,    2.8,    1.7,    2.1,    3.5,    6.2,    9.4,   13.0,   15.0,   16.2,   17.5,   17.4,   17.5,   17.5,   17.6,   19.0,   18.6,   19.1,   18.7,   18.8,   24.2,   30.1,   34.3,  999.0,   41.0,   43.0,  999.0,   45.6,  999.0,  999.0,  999.0,  999.0,  999.0,  999.0,  999.0,  999.0
2000/03/28 11:40,   -4.2,   -1.6,    0.1,    0.7,    3.1,    3.2,    2.7,    3.4,    4.0,    4.8,    4.2,    2.6,    1.8,  999.0,  999.0,  999.0,    7.8,   10.1,   13.0,   14.3,   16.5,   16.1,   15.8,   15.9,   17.2,   19.7,   19.3,   19.4,   17.6,   19.3,   22.9,   26.5,   32.2,   36.2,   40.9,   44.3,   46.7,   46.0,   47.5,  999.0,  999.0,  999.0,  999.0,  999.0,  999.0,  999.0
2000/03/28 11:50,   -4.0,   -1.3,    1.6,    2.4,    3.7,    3.5,    3.2,    3.6,    4.5,    4.8,    3.9,    2.4,    1.7,  999.0,    1.7,    2.9,    5.9,    9.3,   10.7,   11.9,   14.2,   15.3,   16.5,   16.7,   16.0,   17.5,   17.9,   17.5,   16.8,   19.0,   22.2,   26.3,   31.0,   35.1,   38.8,   41.6,   41.7,   44.4,  999.0,   43.9,  999.0,  999.0,  999.0,  999.0,  999.0,  999.0
2000/03/28 12:00,  999.0,  999.0,    0.4,    1.7,    3.0,    2.5,    3.1,    3.9,    4.1,    4.2,    4.2,  999.0,  999.0,    0.6,   -0.1,    2.3,    6.8,   10.0,   10.0,   13.5,   16.3,   16.6,   16.0,   15.3,   15.3,   16.5,   18.0,   19.4,   19.4,   19.6,   22.9,   27.6,   31.7,   35.9,  999.0,  999.0,  999.0,  999.0,  999.0,  999.0,  999.0,  999.0,  999.0,  999.0,  999.0,  999.0
2000/03/28 12:10,  999.0,   -1.8,   -0.4,    0.9,    1.4,  999.0,    2.6,    2.5,    3.3,    2.8,    2.6,    2.6,    0.8,    0.1,    0.0,    2.5,    5.4,    9.1,   12.1,   14.7,   15.6,   14.9,   14.0,   14.5,   13.3,   12.1,   12.5,   14.4,   17.4,   21.2,   25.7,   30.8,  999.0,   39.5,  999.0,  999.0,  999.0,  999.0,  999.0,  999.0,  999.0,  999.0,  999.0,  999.0,  999.0,  999.0
2000/03/28 12:20,  999.0,   -3.3,  999.0,    1.5,  999.0,    1.2,    1.8,    2.2,    3.5,    2.8,    2.2,    1.7,    0.4,   -0.4,   -0.3,    2.8,    6.4,    9.0,   12.5,   12.2,   11.0,   11.6,   12.6,   14.0,   15.3,   16.5,   17.5,   18.7,   21.3,   24.5,   27.9,   31.4,   35.4,   38.4,   39.3,  999.0,  999.0,  999.0,  999.0,  999.0,  999.0,  999.0,  999.0,  999.0,  999.0,  999.0
2000/03/28 12:30,   -4.8,   -4.4,   -3.7,   -1.9,  999.0,  999.0,    2.2,    2.9,    3.4,    3.3,    2.9,    2.1,    0.7,    0.1,   -0.8,    1.6,    5.6,    7.8,    9.4,    8.5,    8.5,    8.5,   11.2,   13.8,   17.1,   18.7,   20.2,   21.8,   24.4,   27.6,   30.5,   33.1,  999.0,   36.6,  999.0,  999.0,  999.0,  999.0,  999.0,  999.0,  999.0,  999.0,  999.0,  999.0,  999.0,  999.0
2000/03/28 12:40,   -4.8,   -2.9,   -3.1,   -1.4,    0.2,  999.0,  999.0,    1.9,    1.5,    2.0,    2.2,    1.9,    0.5,   -0.3,  999.0,  999.0,    5.8,    7.5,    7.9,    6.2,    4.9,    5.2,    7.5,    9.1,   12.7,   16.1,   18.9,   21.3,   24.7,   28.3,   30.8,   34.0,  999.0,  999.0,  999.0,  999.0,  999.0,  999.0,  999.0,  999.0,  999.0,  999.0,  999.0,  999.0,  999.0,  999.0
2000/03/28 12:50,   -4.9,   -3.6,   -2.4,   -0.8,    0.7,    0.7,    1.8,    0.4,    1.3,    2.0,    1.8,    1.0,  999.0,    0.8,    3.9,  999.0,    3.1,    2.3,    2.6,    3.3,    4.2,    5.4,    6.8,    8.3,   11.3,   14.9,   17.4,   19.7,   22.9,   27.7,   31.6,   34.4,   36.0,  999.0,  999.0,  999.0,  999.0,  999.0,  999.0,  999.0,  999.0,  999.0,  999.0,  999.0,  999.0,  999.0
2000/03/28 13:00,   -5.1,   -4.0,   -2.3,   -0.8,    0.7,    1.8,    1.5,    1.6,    1.8,    1.5,    0.9,    0.2,  999.0,  999.0,  999.0,    0.9,    0.9,    1.9,    2.5,    3.4,    5.0,    7.4,   11.0,   13.9,   16.7,   19.2,   20.5,   21.4,   24.0,   28.2,   30.6,   33.6,   34.2,   35.3,   36.3,   37.9,   39.5,   41.4,  999.0,  999.0,  999.0,  999.0,  999.0,  999.0,  999.0,  999.0
2000/03/28 13:10,   -4.6,   -2.5,   -2.0,   -0.7,    1.1,    1.3,    2.2,    2.8,    3.2,    3.1,    2.6,    1.4,    0.4,    0.6,    0.3,    0.9,    1.6,    1.6,    1.9,    4.4,    7.0,   10.3,   13.2,   15.6,   18.0,   19.5,   20.5,   22.5,   24.9,   26.2,   27.9,   30.2,   31.9,   33.1,   35.0,   36.4,   38.3,   40.7,  999.0,  999.0,  999.0,  999.0,  999.0,  999.0,  999.0,  999.0
2000/03/28 13:20,   -3.9,   -1.9,   -0.6,    0.5,    1.7,    1.9,    2.9,    2.9,    3.7,    3.6,    4.0,  999.0,  999.0,  999.0,    4.8,    3.9,    3.3,    3.8,    7.2,   11.4,   11.9,   13.4,   15.6,   17.8,   19.6,   20.4,   21.6,   22.7,   23.3,   25.4,   27.4,   29.4,   31.1,   32.2,   33.8,   35.9,   39.0,   41.1,  999.0,  999.0,  999.0,  999.0,  999.0,  999.0,  999.0,  999.0
2000/03/28 13:30,   -3.0,   -1.3,    1.0,    1.7,    2.6,    2.6,    2.1,    2.1,    2.4,    3.2,    4.4,    5.3,    4.9,    5.2,    4.9,    4.1,    5.9,    7.4,   11.0,   13.5,   15.0,   15.6,   16.4,   18.0,   19.0,   22.1,   23.6,   23.6,   24.2,   26.5,   28.8,   29.6,   30.4,   32.1,   33.6,   36.2,  999.0,  999.0,  999.0,  999.0,  999.0,  999.0,  999.0,  999.0,  999.0,  999.0
2000/03/28 13:40,   -3.5,   -1.8,   -1.2,    0.2,    2.2,    1.2,    2.3,    1.8,    1.5,    2.9,    4.9,    6.1,    5.4,    5.8,    7.1,    8.6,   11.0,   13.1,   14.6,   16.1,   16.8,   17.3,   18.9,   20.1,   20.9,   22.3,   23.6,   24.7,   25.9,   28.2,   28.9,  999.0,   32.8,  999.0,  999.0,  999.0,  999.0,  999.0,  999.0,  999.0,  999.0,  999.0,  999.0,  999.0,  999.0,  999.0
2000/03/28 13:50,   -5.9,   -4.7,   -4.2,   -1.4,   -0.6,    0.7,    0.7,    2.2,    2.3,    3.3,    4.4,    7.1,    9.4,    9.4,   11.6,   12.9,   14.6,   15.3,   16.4,   17.4,   20.1,   22.3,   23.3,   23.5,   24.0,   24.9,   25.0,   26.0,   27.4,  999.0,  999.0,  999.0,  999.0,  999.0,  999.0,  999.0,  999.0,  999.0,  999.0,  999.0,  999.0,  999.0,  999.0,  999.0,  999.0,  999.0
2000/03/28 14:00,  999.0,   -5.8,  999.0,  999.0,  999.0,    0.8,    0.7,    1.0,    1.8,    2.2,    3.6,    5.5,    8.4,   10.4,   12.3,   14.0,   15.3,   16.7,   18.1,   20.7,   23.8,   28.5,   24.3,   24.0,   23.9,   23.8,   26.0,   26.4,   30.0,   32.2,  999.0,  999.0,  999.0,  999.0,  999.0,  999.0,  999.0,  999.0,  999.0,  999.0,  999.0,  999.0,  999.0,  999.0,  999.0,  999.0
2000/03/28 14:10,  999.0,  999.0,   -2.9,   -3.0,   -1.5,   -1.6,    0.8,    2.4,    2.6,    3.3,    4.2,    6.5,    7.9,   10.9,   13.5,   16.0,   17.9,   19.8,   21.6,   26.5,   29.3,   30.1,   26.9,   24.0,   23.7,   25.1,   28.4,   30.5,  999.0,  999.0,  999.0,  999.0,  999.0,  999.0,  999.0,  999.0,  999.0,  999.0,  999.0,  999.0,  999.0,  999.0,  999.0,  999.0,  999.0,  999.0
2000/03/28 14:20,  999.0,   -4.1,   -3.2,   -2.1,   -1.1,   -0.3,   -0.3,    0.9,    1.2,    1.9,    2.9,    4.6,    7.1,   12.1,   15.0,   17.6,   19.9,   21.1,   23.1,   25.6,   27.8,   27.2,   26.2,   24.5,   24.7,   26.7,   31.8,  999.0,  999.0,  999.0,  999.0,  999.0,  999.0,  999.0,  999.0,  999.0,  999.0,  999.0,  999.0,  999.0,  999.0,  999.0,  999.0,  999.0,  999.0,  999.0
2000/03/28 14:30,  999.0,   -4.1,   -4.0,   -4.1,   -3.2,   -1.4,    0.9,    2.2,    2.3,    2.1,    3.5,    5.7,    8.6,   12.1,   14.2,   17.5,   20.7,   23.1,   24.9,   27.2,   31.3,   31.0,   28.4,   27.5,   27.3,   28.7,  999.0,  999.0,  999.0,  999.0,  999.0,  999.0,  999.0,  999.0,  999.0,  999.0,  999.0,  999.0,  999.0,  999.0,  999.0,  999.0,  999.0,  999.0,  999.0,  999.0
2000/03/28 14:40,  999.0,   -4.5,   -5.2,   -4.7,   -4.3,   -1.7,    0.4,    1.6,    2.0,    3.0,    4.2,    6.5,    7.5,   12.3,   14.9,   19.1,   21.8,   22.8,   24.8,   28.4,   32.2,   32.1,   29.8,   27.6,   26.7,  999.0,   28.6,   31.0,  999.0,  999.0,  999.0,  999.0,  999.0,  999.0,  999.0,  999.0,  999.0,  999.0,  999.0,  999.0,  999.0,  999.0,  999.0,  999.0,  999.0,  999.0
2000/03/28 14:50,  999.0,   -3.8,   -4.1,   -3.9,   -2.4,    1.0,    1.6,    2.0,    1.8,    2.9,    5.3,    6.7,   10.3,   12.3,   17.7,   20.3,   21.6,   23.3,   25.4,   28.7,   32.8,   33.0,   30.7,   30.1,   27.4,  999.0,  999.0,  999.0,  999.0,  999.0,  999.0,  999.0,  999.0,  999.0,  999.0,  999.0,  999.0,  999.0,  999.0,  999.0,  999.0,  999.0,  999.0,  999.0,  999.0,  999.0
2000/03/28 15:00,  999.0,   -3.9,   -4.3,   -3.7,   -2.4,    1.8,    3.6,    3.7,    5.3,    4.3,    5.7,    7.8,   10.4,   14.3,   17.3,   19.9,  999.0,   25.6,   27.3,   28.9,   29.7,  999.0,  999.0,   30.3,   29.3,  999.0,  999.0,  999.0,  999.0,  999.0,  999.0,  999.0,  999.0,  999.0,  999.0,  999.0,  999.0,  999.0,  999.0,  999.0,  999.0,  999.0,  999.0,  999.0,  999.0,  999.0
2000/03/28 15:10,  999.0,  999.0,  999.0,  999.0,  999.0,  999.0,  999.0,  999.0,  999.0,  999.0,  999.0,  999.0,  999.0,  999.0,  999.0,  999.0,  999.0,  999.0,  999.0,  999.0,  999.0,  999.0,  999.0,  999.0,  999.0,  999.0,  999.0,  999.0,  999.0,  999.0,  999.0,  999.0,  999.0,  999.0,  999.0,  999.0,  999.0,  999.0,  999.0,  999.0,  999.0,  999.0,  999.0,  999.0,  999.0,  999.0
2000/03/28 15:20,  999.0,  999.0,  999.0,  999.0,  999.0,  999.0,  999.0,  999.0,  999.0,  999.0,  999.0,  999.0,  999.0,  999.0,  999.0,  999.0,  999.0,  999.0,  999.0,  999.0,  999.0,  999.0,  999.0,  999.0,  999.0,  999.0,  999.0,  999.0,  999.0,  999.0,  999.0,  999.0,  999.0,  999.0,  999.0,  999.0,  999.0,  999.0,  999.0,  999.0,  999.0,  999.0,  999.0,  999.0,  999.0,  999.0
2000/03/28 15:30,  999.0,  999.0,  999.0,  999.0,  999.0,  999.0,  999.0,  999.0,  999.0,  999.0,  999.0,  999.0,  999.0,  999.0,  999.0,  999.0,  999.0,  999.0,  999.0,  999.0,  999.0,  999.0,  999.0,  999.0,  999.0,  999.0,  999.0,  999.0,  999.0,  999.0,  999.0,  999.0,  999.0,  999.0,  999.0,  999.0,  999.0,  999.0,  999.0,  999.0,  999.0,  999.0,  999.0,  999.0,  999.0,  999.0
2000/03/28 15:40,  999.0,  999.0,  999.0,  999.0,  999.0,  999.0,  999.0,  999.0,  999.0,  999.0,  999.0,  999.0,  999.0,  999.0,  999.0,  999.0,  999.0,  999.0,  999.0,  999.0,  999.0,  999.0,  999.0,  999.0,  999.0,  999.0,  999.0,  999.0,  999.0,  999.0,  999.0,  999.0,  999.0,  999.0,  999.0,  999.0,  999.0,  999.0,  999.0,  999.0,  999.0,  999.0,  999.0,  999.0,  999.0,  999.0
2000/03/28 15:50,  999.0,  999.0,  999.0,  999.0,  999.0,   -0.2,    5.6,    6.2,    8.8,    9.9,    8.5,  999.0,    7.4,  999.0,  999.0,  999.0,  999.0,  999.0,   19.7,   19.8,   22.0,   25.0,   28.6,   32.2,   29.8,  999.0,   26.3,   28.5,   33.3,   35.5,  999.0,  999.0,  999.0,  999.0,  999.0,  999.0,  999.0,  999.0,  999.0,  999.0,  999.0,  999.0,  999.0,  999.0,  999.0,  999.0
2000/03/28 16:00,  999.0,   -2.4,   -3.9,   -3.2,   -0.6,    0.7,    1.8,    4.0,    5.6,    8.3,    7.6,    6.9,    7.7,   10.9,   12.7,   13.8,   16.5,   20.4,   23.2,   24.1,   27.2,   30.1,   33.0,   30.4,   29.9,   27.2,   28.4,   31.7,   34.0,  999.0,  999.0,  999.0,  999.0,  999.0,  999.0,  999.0,  999.0,  999.0,  999.0,  999.0,  999.0,  999.0,  999.0,  999.0,  999.0,  999.0
2000/03/28 16:10,  999.0,  999.0,   -3.8,   -1.6,   -0.5,    1.3,    2.6,    4.7,    7.2,    9.8,    9.3,    9.9,    9.0,   11.1,   12.4,   14.3,   16.5,   18.9,   21.2,   25.1,   29.3,   31.0,   31.8,   31.9,   29.8,   29.0,   29.4,   31.6,  999.0,  999.0,  999.0,  999.0,  999.0,  999.0,  999.0,  999.0,  999.0,  999.0,  999.0,  999.0,  999.0,  999.0,  999.0,  999.0,  999.0,  999.0
2000/03/28 16:20,  999.0,  999.0,   -2.7,   -2.5,    0.7,   -0.7,    3.5,    5.2,    6.4,    6.6,    9.4,  999.0,    7.1,    8.5,    8.9,   11.3,   12.7,   15.1,   17.0,   19.9,   24.4,   26.1,   27.0,   26.7,   27.3,   28.5,  999.0,  999.0,  999.0,  999.0,  999.0,  999.0,  999.0,  999.0,  999.0,  999.0,  999.0,  999.0,  999.0,  999.0,  999.0,  999.0,  999.0,  999.0,  999.0,  999.0
2000/03/28 16:30,  999.0,   -3.3,   -2.8,   -2.4,   -0.8,    2.3,    4.1,    7.9,    9.1,    9.8,  999.0,    8.4,    9.6,   10.5,   12.2,   14.3,   14.1,   16.3,   17.5,   20.1,   22.7,   24.3,   25.4,   26.0,  999.0,  999.0,  999.0,  999.0,  999.0,  999.0,  999.0,  999.0,  999.0,  999.0,  999.0,  999.0,  999.0,  999.0,  999.0,  999.0,  999.0,  999.0,  999.0,  999.0,  999.0,  999.0
